,,Stat5,,Stat1,,Stat2,,Stat3,,Stat4,,Wind1,,Wind1,
time,status,PA1M_AVG,status,PR1M_SUM,status,RH1M_AVG,status,SR1M_AVG,status,TA1M_AVG,status,W1dAve1m,status,W1sAve1m,
2002-12-22, 00:00:00,VALID,916.663,VALID,0,VALID,99.5832,VALID,-0.101885,VALID,20.591,VALID,60,VALID,0.000822368,
2002-12-22, 00:01:00,VALID,916.656,VALID,0,VALID,99.5806,VALID,-0.0169808,VALID,20.5841,VALID,60,VALID,0.00464527,
2002-12-22, 00:02:00,VALID,916.644,VALID,0,VALID,99.5743,VALID,-0.0509425,VALID,20.601,VALID,60,VALID,0,
2002-12-22, 00:03:00,VALID,916.625,VALID,0,VALID,99.5692,VALID,-0.0509425,VALID,20.6034,VALID,60,VALID,0,
2002-12-22, 00:04:00,VALID,916.603,VALID,0,VALID,99.5781,VALID,-0.0679233,VALID,20.6037,VALID,60,VALID,0,
2002-12-22, 00:05:00,VALID,916.593,VALID,0,VALID,99.5755,VALID,-0.0679233,VALID,20.6171,VALID,60,VALID,0,
2002-12-22, 00:06:00,VALID,916.571,VALID,0,VALID,99.5679,VALID,-0.101885,VALID,20.6233,VALID,60,VALID,0,
2002-12-22, 00:07:00,VALID,916.568,VALID,0,VALID,99.5781,VALID,-0.0339617,VALID,20.6298,VALID,73,VALID,0.125422,
2002-12-22, 00:08:00,VALID,916.55,VALID,0,VALID,99.5755,VALID,0,VALID,20.6228,VALID,147,VALID,0.717905,
2002-12-22, 00:09:00,VALID,916.531,VALID,0,VALID,99.5755,VALID,-0.0509425,VALID,20.6075,VALID,139,VALID,0.601974,
2002-12-22, 00:10:00,VALID,916.521,VALID,0,VALID,99.5692,VALID,-0.0849042,VALID,20.5935,VALID,143,VALID,0.634421,
2002-12-22, 00:11:00,VALID,916.498,VALID,0,VALID,99.5704,VALID,-0.0679233,VALID,20.6007,VALID,152,VALID,0.657652,
2002-12-22, 00:12:00,VALID,916.48,VALID,0,VALID,99.5704,VALID,-0.0339617,VALID,20.6042,VALID,151,VALID,0.497196,
2002-12-22, 00:13:00,VALID,916.477,VALID,0,VALID,99.5717,VALID,-0.0679233,VALID,20.5843,VALID,132,VALID,0.312054,
2002-12-22, 00:14:00,VALID,916.477,VALID,0,VALID,99.5704,VALID,-0.0679233,VALID,20.6005,VALID,125,VALID,0.379934,
2002-12-22, 00:15:00,VALID,916.463,VALID,0,VALID,99.573,VALID,-0.0339617,VALID,20.5806,VALID,110,VALID,0.435113,
2002-12-22, 00:16:00,VALID,916.468,VALID,0,VALID,99.573,VALID,-0.0509425,VALID,20.5875,VALID,143,VALID,0.47759,
2002-12-22, 00:17:00,VALID,916.467,VALID,0,VALID,99.5768,VALID,-0.0679233,VALID,20.5816,VALID,109,VALID,0.38954,
2002-12-22, 00:18:00,VALID,916.461,VALID,0,VALID,99.5806,VALID,-0.0679233,VALID,20.5778,VALID,124,VALID,0.475446,
2002-12-22, 00:19:00,VALID,916.451,VALID,0,VALID,99.5781,VALID,-0.0509425,VALID,20.5776,VALID,141,VALID,0.702925,
2002-12-22, 00:20:00,VALID,916.448,VALID,0,VALID,99.5832,VALID,-0.0169808,VALID,20.5679,VALID,139,VALID,0.570089,
2002-12-22, 00:21:00,VALID,916.441,VALID,0,VALID,99.573,VALID,-0.0339617,VALID,20.5682,VALID,129,VALID,0.581641,
2002-12-22, 00:22:00,VALID,916.457,VALID,0,VALID,99.5844,VALID,-0.0169808,VALID,20.5555,VALID,120,VALID,0.793527,
2002-12-22, 00:23:00,VALID,916.465,VALID,0,VALID,99.5768,VALID,-0.0169808,VALID,20.5413,VALID,120,VALID,0.688702,
2002-12-22, 00:24:00,VALID,916.473,VALID,0,VALID,99.5819,VALID,0,VALID,20.5385,VALID,124,VALID,0.304688,
2002-12-22, 00:25:00,VALID,916.466,VALID,0,VALID,99.5832,VALID,0,VALID,20.5485,VALID,104,VALID,0.334498,
2002-12-22, 00:26:00,VALID,916.444,VALID,0,VALID,99.5806,VALID,0,VALID,20.546,VALID,109,VALID,0.468945,
2002-12-22, 00:27:00,VALID,916.436,VALID,0,VALID,99.5806,VALID,0,VALID,20.5224,VALID,84,VALID,0.421453,
2002-12-22, 00:28:00,VALID,916.409,VALID,0,VALID,99.5806,VALID,0.0169808,VALID,20.5192,VALID,92,VALID,0.464638,
2002-12-22, 00:29:00,VALID,916.391,VALID,0,VALID,99.587,VALID,0,VALID,20.5068,VALID,91,VALID,0.595312,
2002-12-22, 00:30:00,VALID,916.386,VALID,0,VALID,99.5857,VALID,0,VALID,20.4772,VALID,81,VALID,0.38788,
2002-12-22, 00:31:00,VALID,916.37,VALID,0,VALID,99.5857,VALID,-0.0169808,VALID,20.4742,VALID,61,VALID,0.494141,
2002-12-22, 00:32:00,VALID,916.359,VALID,0,VALID,99.5832,VALID,-0.0169808,VALID,20.4476,VALID,76,VALID,0.746299,
2002-12-22, 00:33:00,VALID,916.364,VALID,0,VALID,99.5883,VALID,0,VALID,20.4287,VALID,65,VALID,0.560238,
2002-12-22, 00:34:00,VALID,916.374,VALID,0,VALID,99.5844,VALID,0,VALID,20.4125,VALID,59,VALID,0.574219,
2002-12-22, 00:35:00,VALID,916.386,VALID,0,VALID,99.5921,VALID,0.0169808,VALID,20.4004,VALID,53,VALID,0.559961,
2002-12-22, 00:36:00,VALID,916.383,VALID,0,VALID,99.5946,VALID,-0.0169808,VALID,20.377,VALID,24,VALID,0.404811,
2002-12-22, 00:37:00,VALID,916.399,VALID,0,VALID,99.5933,VALID,0.0169808,VALID,20.3802,VALID,15,VALID,0.22309,
2002-12-22, 00:38:00,VALID,916.39,VALID,0,VALID,99.5857,VALID,0,VALID,20.3611,VALID,15,VALID,0.080221,
2002-12-22, 00:39:00,VALID,916.39,VALID,0,VALID,99.587,VALID,0,VALID,20.3417,VALID,15,VALID,0,
2002-12-22, 00:40:00,VALID,916.361,VALID,0,VALID,99.5794,VALID,0.0339617,VALID,20.3255,VALID,15,VALID,0,
2002-12-22, 00:41:00,VALID,916.361,VALID,0,VALID,99.587,VALID,-0.0169808,VALID,20.3186,VALID,15,VALID,0,
2002-12-22, 00:42:00,VALID,916.334,VALID,0,VALID,99.587,VALID,-0.0169808,VALID,20.3126,VALID,15,VALID,0,
2002-12-22, 00:43:00,VALID,916.314,VALID,0,VALID,99.5933,VALID,0,VALID,20.2967,VALID,15,VALID,0,
2002-12-22, 00:44:00,VALID,916.293,VALID,0,VALID,99.5933,VALID,-0.0169808,VALID,20.2806,VALID,11,VALID,0.16847,
2002-12-22, 00:45:00,VALID,916.262,VALID,0,VALID,99.5883,VALID,-0.0169808,VALID,20.28,VALID,2,VALID,0.104802,
2002-12-22, 00:46:00,VALID,916.229,VALID,0,VALID,99.5959,VALID,0,VALID,20.29,VALID,2,VALID,0,
2002-12-22, 00:47:00,VALID,916.219,VALID,0,VALID,99.5946,VALID,-0.0339617,VALID,20.2905,VALID,2,VALID,0,
2002-12-22, 00:48:00,VALID,916.19,VALID,0,VALID,99.5921,VALID,-0.0169808,VALID,20.2706,VALID,2,VALID,0,
2002-12-22, 00:49:00,VALID,916.167,VALID,0,VALID,99.5895,VALID,-0.0679233,VALID,20.2647,VALID,2,VALID,0.00078125,
2002-12-22, 00:50:00,VALID,916.157,VALID,0,VALID,99.5946,VALID,-0.0339617,VALID,20.2547,VALID,34,VALID,0.424137,
2002-12-22, 00:51:00,VALID,916.158,VALID,0,VALID,99.601,VALID,0,VALID,20.2612,VALID,100,VALID,0.574836,
2002-12-22, 00:52:00,VALID,916.156,VALID,0,VALID,99.6061,VALID,-0.0339617,VALID,20.2644,VALID,100,VALID,0.67462,
2002-12-22, 00:53:00,VALID,916.152,VALID,0,VALID,99.6048,VALID,0,VALID,20.2448,VALID,116,VALID,0.583203,
2002-12-22, 00:54:00,VALID,916.157,VALID,0,VALID,99.6111,VALID,-0.0339617,VALID,20.2351,VALID,142,VALID,0.545573,
2002-12-22, 00:55:00,VALID,916.135,VALID,0,VALID,99.6022,VALID,-0.0169808,VALID,20.2326,VALID,153,VALID,0.915963,
2002-12-22, 00:56:00,VALID,916.136,VALID,0,VALID,99.6099,VALID,-0.0169808,VALID,20.2192,VALID,157,VALID,0.531456,
2002-12-22, 00:57:00,VALID,916.113,VALID,0,VALID,99.6099,VALID,-0.0169808,VALID,20.2197,VALID,153,VALID,0.31108,
2002-12-22, 00:58:00,VALID,916.103,VALID,0,VALID,99.6086,VALID,-0.0339617,VALID,20.2033,VALID,165,VALID,0.480674,
2002-12-22, 00:59:00,VALID,916.085,VALID,0,VALID,99.615,VALID,-0.0339617,VALID,20.2132,VALID,143,VALID,0.633203,
2002-12-22, 01:00:00,VALID,916.049,VALID,0,VALID,99.6111,VALID,-0.0169808,VALID,20.2135,VALID,145,VALID,0.685033,
2002-12-22, 01:01:00,VALID,916.018,VALID,0,VALID,99.615,VALID,-0.0339617,VALID,20.2264,VALID,134,VALID,0.379729,
2002-12-22, 01:02:00,VALID,915.977,VALID,0,VALID,99.6035,VALID,-0.0169808,VALID,20.2167,VALID,124,VALID,0.243627,
2002-12-22, 01:03:00,VALID,915.952,VALID,0,VALID,99.6061,VALID,-0.0339617,VALID,20.1707,VALID,113,VALID,0.317508,
2002-12-22, 01:04:00,VALID,915.901,VALID,0,VALID,99.6162,VALID,-0.0339617,VALID,20.1459,VALID,97,VALID,0.280617,
2002-12-22, 01:05:00,VALID,915.849,VALID,0,VALID,99.6175,VALID,-0.0169808,VALID,20.116,VALID,94,VALID,0.501439,
2002-12-22, 01:06:00,VALID,915.827,VALID,0,VALID,99.6162,VALID,-0.0509425,VALID,20.1225,VALID,89,VALID,0.499023,
2002-12-22, 01:07:00,VALID,915.78,VALID,0,VALID,99.6226,VALID,-0.0169808,VALID,20.1516,VALID,78,VALID,0.625868,
2002-12-22, 01:08:00,VALID,915.752,VALID,0,VALID,99.6289,VALID,0,VALID,20.1118,VALID,63,VALID,0.852196,
2002-12-22, 01:09:00,VALID,915.724,VALID,0,VALID,99.6264,VALID,0,VALID,20.0991,VALID,63,VALID,0.832854,
2002-12-22, 01:10:00,VALID,915.685,VALID,0,VALID,99.6289,VALID,0,VALID,20.0767,VALID,67,VALID,0.776563,
2002-12-22, 01:11:00,VALID,915.682,VALID,0,VALID,99.6378,VALID,0.0169808,VALID,20.0603,VALID,67,VALID,0.574535,
2002-12-22, 01:12:00,VALID,915.672,VALID,0,VALID,99.6378,VALID,0.0169808,VALID,20.0514,VALID,56,VALID,0.432566,
2002-12-22, 01:13:00,VALID,915.67,VALID,0,VALID,99.6391,VALID,0,VALID,19.9731,VALID,54,VALID,0.54933,
2002-12-22, 01:14:00,VALID,915.665,VALID,0,VALID,99.6442,VALID,0.0169808,VALID,19.9085,VALID,52,VALID,0.635216,
2002-12-22, 01:15:00,VALID,915.237,VALID,0,VALID,99.6544,VALID,0,VALID,19.8956,VALID,51,VALID,0.629557,
2002-12-22, 01:16:00,VALID,915.671,VALID,0,VALID,99.6493,VALID,0.0169808,VALID,19.8985,VALID,51,VALID,0.545641,
2002-12-22, 01:17:00,VALID,915.672,VALID,0,VALID,99.6417,VALID,0.0509425,VALID,19.8826,VALID,51,VALID,0.445929,
2002-12-22, 01:18:00,VALID,915.695,VALID,0,VALID,99.6455,VALID,0,VALID,19.87,VALID,51,VALID,0.413007,
2002-12-22, 01:19:00,VALID,915.7,VALID,0,VALID,99.6544,VALID,0.0339617,VALID,19.8995,VALID,51,VALID,0.299414,
2002-12-22, 01:20:00,VALID,915.726,VALID,0,VALID,99.6493,VALID,0,VALID,19.8923,VALID,52,VALID,0.329928,
2002-12-22, 01:21:00,VALID,915.74,VALID,0,VALID,99.6468,VALID,0,VALID,19.9082,VALID,61,VALID,0.279046,
2002-12-22, 01:22:00,VALID,915.756,VALID,0,VALID,99.6569,VALID,-0.0679233,VALID,19.9067,VALID,61,VALID,0.138936,
2002-12-22, 01:23:00,VALID,915.769,VALID,0,VALID,99.6582,VALID,-0.101885,VALID,19.9269,VALID,61,VALID,0.066907,
2002-12-22, 01:24:00,VALID,915.76,VALID,0,VALID,99.6518,VALID,-0.101885,VALID,19.9428,VALID,61,VALID,0.0707721,
2002-12-22, 01:25:00,VALID,915.763,VALID,0,VALID,99.6556,VALID,-0.101885,VALID,19.9396,VALID,61,VALID,0.0441406,
2002-12-22, 01:26:00,VALID,915.757,VALID,0,VALID,99.6582,VALID,-0.0849042,VALID,19.9334,VALID,61,VALID,0.0102796,
2002-12-22, 01:27:00,VALID,915.763,VALID,0,VALID,99.6544,VALID,-0.101885,VALID,19.9105,VALID,61,VALID,0.0544872,
2002-12-22, 01:28:00,VALID,915.771,VALID,0,VALID,99.6595,VALID,-0.0849042,VALID,19.8454,VALID,61,VALID,0.261719,
2002-12-22, 01:29:00,VALID,915.765,VALID,0,VALID,99.6722,VALID,-0.0849042,VALID,19.8096,VALID,61,VALID,0.188086,
2002-12-22, 01:30:00,VALID,915.787,VALID,0,VALID,99.6722,VALID,-0.101885,VALID,19.8165,VALID,61,VALID,0.524023,
2002-12-22, 01:31:00,VALID,915.78,VALID,0,VALID,99.6671,VALID,-0.0849042,VALID,19.823,VALID,61,VALID,0.81851,
2002-12-22, 01:32:00,VALID,915.773,VALID,0,VALID,99.6709,VALID,-0.101885,VALID,19.8973,VALID,65,VALID,0.671669,
2002-12-22, 01:33:00,VALID,915.762,VALID,0,VALID,99.6735,VALID,-0.0679233,VALID,19.9555,VALID,77,VALID,0.788662,
2002-12-22, 01:34:00,VALID,915.757,VALID,0,VALID,99.6785,VALID,-0.0849042,VALID,20.0007,VALID,81,VALID,0.740585,
2002-12-22, 01:35:00,VALID,915.74,VALID,0,VALID,99.6658,VALID,-0.101885,VALID,20.0303,VALID,81,VALID,0.655405,
2002-12-22, 01:36:00,VALID,915.726,VALID,0,VALID,99.6671,VALID,-0.101885,VALID,20.0494,VALID,83,VALID,0.622596,
2002-12-22, 01:37:00,VALID,915.715,VALID,0,VALID,99.6658,VALID,0,VALID,20.0574,VALID,89,VALID,0.549262,
2002-12-22, 01:38:00,VALID,915.696,VALID,0,VALID,99.6582,VALID,0,VALID,20.0603,VALID,89,VALID,0.424045,
2002-12-22, 01:39:00,VALID,915.676,VALID,0,VALID,99.6633,VALID,0.0169808,VALID,20.0574,VALID,89,VALID,0.449319,
2002-12-22, 01:40:00,VALID,915.654,VALID,0,VALID,99.6633,VALID,0.0169808,VALID,20.0472,VALID,85,VALID,0.59016,
2002-12-22, 01:41:00,VALID,915.633,VALID,0,VALID,99.6735,VALID,0,VALID,20.0409,VALID,70,VALID,0.751603,
2002-12-22, 01:42:00,VALID,915.613,VALID,0,VALID,99.6671,VALID,0,VALID,20.0514,VALID,61,VALID,0.776727,
2002-12-22, 01:43:00,VALID,915.579,VALID,0,VALID,99.6709,VALID,-0.0169808,VALID,20.0315,VALID,58,VALID,0.733232,
2002-12-22, 01:44:00,VALID,915.541,VALID,0,VALID,99.6633,VALID,0.0169808,VALID,20.0218,VALID,57,VALID,0.521635,
2002-12-22, 01:45:00,VALID,915.514,VALID,0,VALID,99.6607,VALID,0,VALID,20.0218,VALID,57,VALID,0.265625,
2002-12-22, 01:46:00,VALID,915.483,VALID,0,VALID,99.6735,VALID,0.0169808,VALID,20.0156,VALID,57,VALID,0.11471,
2002-12-22, 01:47:00,VALID,915.45,VALID,0,VALID,99.6569,VALID,0.0169808,VALID,20.0216,VALID,57,VALID,0.0735176,
2002-12-22, 01:48:00,VALID,915.417,VALID,0,VALID,99.6646,VALID,0.0169808,VALID,20.0342,VALID,57,VALID,0.0135135,
2002-12-22, 01:49:00,VALID,915.399,VALID,0,VALID,99.6735,VALID,-0.0169808,VALID,20.0581,VALID,57,VALID,0.0796441,
2002-12-22, 01:50:00,VALID,915.371,VALID,0,VALID,99.6658,VALID,0,VALID,20.067,VALID,57,VALID,0.0266426,
2002-12-22, 01:51:00,VALID,915.361,VALID,0,VALID,99.6684,VALID,0,VALID,20.0675,VALID,57,VALID,0.122702,
2002-12-22, 01:52:00,VALID,915.344,VALID,0,VALID,99.6709,VALID,-0.0849042,VALID,20.0584,VALID,52,VALID,0.289844,
2002-12-22, 01:53:00,VALID,915.333,VALID,0,VALID,99.6696,VALID,-0.0849042,VALID,20.0529,VALID,45,VALID,0.233553,
2002-12-22, 01:54:00,VALID,915.326,VALID,0,VALID,99.6722,VALID,-0.101885,VALID,20.0231,VALID,45,VALID,0.193576,
2002-12-22, 01:55:00,VALID,915.312,VALID,0,VALID,99.6684,VALID,-0.101885,VALID,20.0196,VALID,45,VALID,0,
2002-12-22, 01:56:00,VALID,915.313,VALID,0,VALID,99.6735,VALID,-0.0849042,VALID,20.03,VALID,45,VALID,0.00917969,
2002-12-22, 01:57:00,VALID,915.286,VALID,0,VALID,99.6747,VALID,-0.0849042,VALID,20.0136,VALID,347,VALID,0.324836,
2002-12-22, 01:58:00,VALID,915.272,VALID,0,VALID,99.6658,VALID,-0.0849042,VALID,19.9908,VALID,290,VALID,0.351151,
2002-12-22, 01:59:00,VALID,915.262,VALID,0,VALID,99.6747,VALID,-0.0679233,VALID,19.9972,VALID,286,VALID,0.189063,
2002-12-22, 02:00:00,VALID,915.236,VALID,0,VALID,99.676,VALID,-0.0679233,VALID,19.9811,VALID,286,VALID,0.32512,
2002-12-22, 02:01:00,VALID,915.211,VALID,0,VALID,99.6785,VALID,-0.0849042,VALID,19.9743,VALID,285,VALID,0.287796,
2002-12-22, 02:02:00,VALID,915.21,VALID,0,VALID,99.6773,VALID,-0.101885,VALID,19.9843,VALID,285,VALID,0.101563,
2002-12-22, 02:03:00,VALID,915.215,VALID,0,VALID,99.6811,VALID,-0.0679233,VALID,19.987,VALID,285,VALID,0.0102163,
2002-12-22, 02:04:00,VALID,915.21,VALID,0,VALID,99.676,VALID,-0.0679233,VALID,20.0171,VALID,285,VALID,0,
2002-12-22, 02:05:00,VALID,915.214,VALID,0,VALID,99.6773,VALID,-0.101885,VALID,20.0362,VALID,285,VALID,0,
2002-12-22, 02:06:00,VALID,915.212,VALID,0,VALID,99.6709,VALID,-0.101885,VALID,20.0661,VALID,285,VALID,0,
2002-12-22, 02:07:00,VALID,915.213,VALID,0,VALID,99.676,VALID,0.0339617,VALID,20.0536,VALID,285,VALID,0,
2002-12-22, 02:08:00,VALID,915.206,VALID,0,VALID,99.6747,VALID,0.0849042,VALID,20.0566,VALID,285,VALID,0.0804688,
2002-12-22, 02:09:00,VALID,915.198,VALID,0,VALID,99.6684,VALID,0.0679233,VALID,20.0797,VALID,268,VALID,0.358774,
2002-12-22, 02:10:00,VALID,915.177,VALID,0,VALID,99.6735,VALID,0.101885,VALID,20.0792,VALID,252,VALID,0.0878906,
2002-12-22, 02:11:00,VALID,915.151,VALID,0,VALID,99.676,VALID,0.101885,VALID,20.0961,VALID,252,VALID,0.235197,
2002-12-22, 02:12:00,VALID,915.14,VALID,0,VALID,99.6735,VALID,0.101885,VALID,20.0886,VALID,251,VALID,0.295641,
2002-12-22, 02:13:00,VALID,915.122,VALID,0,VALID,99.6811,VALID,0.0849042,VALID,20.0988,VALID,250,VALID,0.349873,
2002-12-22, 02:14:00,VALID,915.137,VALID,0,VALID,99.6684,VALID,0.0849042,VALID,20.1018,VALID,190,VALID,0.418555,
2002-12-22, 02:15:00,VALID,915.146,VALID,0,VALID,99.676,VALID,0.0849042,VALID,20.1021,VALID,212,VALID,0.454644,
2002-12-22, 02:16:00,VALID,915.165,VALID,0,VALID,99.6811,VALID,0.0849042,VALID,20.1085,VALID,213,VALID,0.19299,
2002-12-22, 02:17:00,VALID,915.183,VALID,0,VALID,99.6811,VALID,0.0679233,VALID,20.1118,VALID,213,VALID,0.0213816,
2002-12-22, 02:18:00,VALID,915.202,VALID,0,VALID,99.6709,VALID,0.0849042,VALID,20.1088,VALID,213,VALID,0,
2002-12-22, 02:19:00,VALID,915.214,VALID,0,VALID,99.6735,VALID,0.0679233,VALID,20.112,VALID,213,VALID,0.00472862,
2002-12-22, 02:20:00,VALID,915.22,VALID,0,VALID,99.676,VALID,0.0679233,VALID,20.0986,VALID,213,VALID,0.00234375,
2002-12-22, 02:21:00,VALID,915.223,VALID,0,VALID,99.6722,VALID,0.0679233,VALID,20.0959,VALID,213,VALID,0,
2002-12-22, 02:22:00,VALID,915.225,VALID,0,VALID,99.6684,VALID,-0.0169808,VALID,20.0872,VALID,213,VALID,0,
2002-12-22, 02:23:00,VALID,915.218,VALID,0,VALID,99.6798,VALID,-0.0339617,VALID,20.1006,VALID,213,VALID,0,
2002-12-22, 02:24:00,VALID,915.22,VALID,0,VALID,99.6785,VALID,0.0169808,VALID,20.0872,VALID,213,VALID,0,
2002-12-22, 02:25:00,VALID,915.21,VALID,0,VALID,99.6862,VALID,-0.0339617,VALID,20.0939,VALID,213,VALID,0,
2002-12-22, 02:26:00,VALID,915.213,VALID,0,VALID,99.6862,VALID,0,VALID,20.1101,VALID,213,VALID,0,
2002-12-22, 02:27:00,VALID,915.224,VALID,0,VALID,99.6836,VALID,-0.0339617,VALID,20.1294,VALID,213,VALID,0,
2002-12-22, 02:28:00,VALID,915.225,VALID,0,VALID,99.6811,VALID,-0.0339617,VALID,20.1459,VALID,213,VALID,0,
2002-12-22, 02:29:00,VALID,915.219,VALID,0,VALID,99.676,VALID,-0.0339617,VALID,20.1642,VALID,213,VALID,0,
2002-12-22, 02:30:00,VALID,915.208,VALID,0,VALID,99.6849,VALID,-0.0169808,VALID,20.1908,VALID,213,VALID,0,
2002-12-22, 02:31:00,VALID,915.211,VALID,0,VALID,99.676,VALID,-0.0169808,VALID,20.1879,VALID,213,VALID,0.166741,
2002-12-22, 02:32:00,VALID,915.187,VALID,0,VALID,99.6836,VALID,0,VALID,20.1809,VALID,213,VALID,0.208404,
2002-12-22, 02:33:00,VALID,915.191,VALID,0,VALID,99.6722,VALID,-0.0169808,VALID,20.1777,VALID,213,VALID,0.0505757,
2002-12-22, 02:34:00,VALID,915.18,VALID,0,VALID,99.6735,VALID,0,VALID,20.1965,VALID,213,VALID,0.0357143,
2002-12-22, 02:35:00,VALID,915.179,VALID,0,VALID,99.6646,VALID,0.0169808,VALID,20.2162,VALID,282,VALID,0.371194,
2002-12-22, 02:36:00,VALID,915.169,VALID,0,VALID,99.6773,VALID,0,VALID,20.2423,VALID,26,VALID,0.720269,
2002-12-22, 02:37:00,VALID,915.153,VALID,0,VALID,99.6722,VALID,0,VALID,20.2388,VALID,27,VALID,0.624178,
2002-12-22, 02:38:00,VALID,915.144,VALID,0,VALID,99.6773,VALID,-0.0169808,VALID,20.2296,VALID,13,VALID,0.535567,
2002-12-22, 02:39:00,VALID,915.132,VALID,0,VALID,99.6785,VALID,-0.0509425,VALID,20.2038,VALID,5,VALID,0.845861,
2002-12-22, 02:40:00,VALID,915.099,VALID,0,VALID,99.6798,VALID,0,VALID,20.1874,VALID,12,VALID,0.897852,
2002-12-22, 02:41:00,VALID,915.063,VALID,0,VALID,99.6773,VALID,0,VALID,20.1938,VALID,21,VALID,1.02364,
2002-12-22, 02:42:00,VALID,915.042,VALID,0,VALID,99.6798,VALID,0,VALID,20.1938,VALID,21,VALID,0.747796,
2002-12-22, 02:43:00,VALID,915.016,VALID,0,VALID,99.6824,VALID,0,VALID,20.2067,VALID,16,VALID,0.547508,
2002-12-22, 02:44:00,VALID,914.998,VALID,0,VALID,99.6684,VALID,-0.0339617,VALID,20.2164,VALID,14,VALID,0.305689,
2002-12-22, 02:45:00,VALID,914.967,VALID,0,VALID,99.6773,VALID,-0.0339617,VALID,20.2226,VALID,14,VALID,0.196691,
2002-12-22, 02:46:00,VALID,914.95,VALID,0,VALID,99.6709,VALID,-0.0509425,VALID,20.2167,VALID,14,VALID,0.436523,
2002-12-22, 02:47:00,VALID,914.932,VALID,0,VALID,99.6798,VALID,-0.0169808,VALID,20.2097,VALID,13,VALID,0.293791,
2002-12-22, 02:48:00,VALID,914.889,VALID,0,VALID,99.6722,VALID,-0.0169808,VALID,20.2102,VALID,13,VALID,0.0789263,
2002-12-22, 02:49:00,VALID,914.865,VALID,0,VALID,99.6798,VALID,-0.0169808,VALID,20.2067,VALID,13,VALID,0.0259046,
2002-12-22, 02:50:00,VALID,914.85,VALID,0,VALID,99.6811,VALID,0,VALID,20.2291,VALID,13,VALID,0.0046875,
2002-12-22, 02:51:00,VALID,914.83,VALID,0,VALID,99.6824,VALID,-0.0339617,VALID,20.2425,VALID,13,VALID,0.0400391,
2002-12-22, 02:52:00,VALID,914.816,VALID,0,VALID,99.6735,VALID,-0.0169808,VALID,20.2348,VALID,26,VALID,0.382612,
2002-12-22, 02:53:00,VALID,914.811,VALID,0,VALID,99.6658,VALID,-0.0169808,VALID,20.2358,VALID,358,VALID,0.435033,
2002-12-22, 02:54:00,VALID,914.789,VALID,0,VALID,99.6735,VALID,0,VALID,20.21,VALID,343,VALID,0.450521,
2002-12-22, 02:55:00,VALID,914.754,VALID,0,VALID,99.6747,VALID,0,VALID,20.2167,VALID,344,VALID,0.116386,
2002-12-22, 02:56:00,VALID,914.729,VALID,0,VALID,99.6735,VALID,-0.0169808,VALID,20.213,VALID,358,VALID,0.127956,
2002-12-22, 02:57:00,VALID,914.701,VALID,0,VALID,99.6836,VALID,-0.0339617,VALID,20.213,VALID,54,VALID,0.363782,
2002-12-22, 02:58:00,VALID,914.679,VALID,0,VALID,99.6785,VALID,-0.0169808,VALID,20.2264,VALID,52,VALID,0.0991753,
2002-12-22, 02:59:00,VALID,914.643,VALID,0,VALID,99.6785,VALID,0,VALID,20.2226,VALID,52,VALID,0,
2002-12-22, 03:00:00,VALID,914.624,VALID,0,VALID,99.6836,VALID,-0.0339617,VALID,20.2323,VALID,26,VALID,0.548678,
2002-12-22, 03:01:00,VALID,914.608,VALID,0,VALID,99.6798,VALID,-0.0169808,VALID,20.2587,VALID,11,VALID,0.321791,
2002-12-22, 03:02:00,VALID,914.601,VALID,0,VALID,99.676,VALID,-0.0169808,VALID,20.2517,VALID,9,VALID,0.0971555,
2002-12-22, 03:03:00,VALID,914.593,VALID,0,VALID,99.6735,VALID,-0.0169808,VALID,20.252,VALID,9,VALID,0.203742,
2002-12-22, 03:04:00,VALID,914.587,VALID,0,VALID,99.6696,VALID,-0.0169808,VALID,20.2388,VALID,9,VALID,0.0533537,
2002-12-22, 03:05:00,VALID,914.589,VALID,0,VALID,99.6684,VALID,-0.0339617,VALID,20.246,VALID,9,VALID,0.150441,
2002-12-22, 03:06:00,VALID,914.585,VALID,0,VALID,99.6773,VALID,0,VALID,20.2065,VALID,9,VALID,0.0506757,
2002-12-22, 03:07:00,VALID,914.58,VALID,0,VALID,99.6773,VALID,-0.0169808,VALID,20.1906,VALID,38,VALID,0.182736,
2002-12-22, 03:08:00,VALID,914.579,VALID,0,VALID,99.6722,VALID,-0.0169808,VALID,20.1739,VALID,56,VALID,0.124599,
2002-12-22, 03:09:00,VALID,914.57,VALID,0,VALID,99.6773,VALID,0.0169808,VALID,20.1779,VALID,56,VALID,0.20397,
2002-12-22, 03:10:00,VALID,914.569,VALID,0,VALID,99.6773,VALID,0,VALID,20.1709,VALID,56,VALID,0.261068,
2002-12-22, 03:11:00,VALID,914.58,VALID,0,VALID,99.6646,VALID,-0.0169808,VALID,20.1548,VALID,61,VALID,0.120593,
2002-12-22, 03:12:00,VALID,914.565,VALID,0,VALID,99.6735,VALID,0,VALID,20.1478,VALID,71,VALID,0.22909,
2002-12-22, 03:13:00,VALID,914.554,VALID,0,VALID,99.6646,VALID,0,VALID,20.1553,VALID,130,VALID,0.320898,
2002-12-22, 03:14:00,VALID,914.542,VALID,0,VALID,99.6773,VALID,-0.0169808,VALID,20.1416,VALID,146,VALID,0.299342,
2002-12-22, 03:15:00,VALID,914.513,VALID,0,VALID,99.6773,VALID,0,VALID,20.1419,VALID,146,VALID,0.288411,
2002-12-22, 03:16:00,VALID,914.505,VALID,0,VALID,99.6747,VALID,-0.0169808,VALID,20.1292,VALID,148,VALID,0.332237,
2002-12-22, 03:17:00,VALID,914.481,VALID,0,VALID,99.676,VALID,-0.0169808,VALID,20.1292,VALID,150,VALID,0.4875,
2002-12-22, 03:18:00,VALID,914.476,VALID,0,VALID,99.6773,VALID,0,VALID,20.1262,VALID,150,VALID,0.286595,
2002-12-22, 03:19:00,VALID,914.482,VALID,0,VALID,99.6798,VALID,0,VALID,20.1292,VALID,151,VALID,0.370477,
2002-12-22, 03:20:00,VALID,914.466,VALID,0,VALID,99.6785,VALID,-0.0339617,VALID,20.1488,VALID,138,VALID,0.0960938,
2002-12-22, 03:21:00,VALID,914.458,VALID,0,VALID,99.6735,VALID,-0.0169808,VALID,20.1516,VALID,39,VALID,0.553686,
2002-12-22, 03:22:00,VALID,914.443,VALID,0,VALID,99.676,VALID,0.0849042,VALID,20.1602,VALID,49,VALID,0.267314,
2002-12-22, 03:23:00,VALID,914.444,VALID,0,VALID,99.6773,VALID,0.0849042,VALID,20.1505,VALID,43,VALID,0.224175,
2002-12-22, 03:24:00,VALID,914.419,VALID,0,VALID,99.6798,VALID,0.0679233,VALID,20.1471,VALID,41,VALID,0.051883,
2002-12-22, 03:25:00,VALID,914.426,VALID,0,VALID,99.6836,VALID,0.0679233,VALID,20.1535,VALID,47,VALID,0.107475,
2002-12-22, 03:26:00,VALID,914.413,VALID,0,VALID,99.6902,VALID,0.101885,VALID,20.1667,VALID,42,VALID,0.18109,
2002-12-22, 03:27:00,VALID,914.423,VALID,0,VALID,99.6824,VALID,0.101885,VALID,20.167,VALID,40,VALID,0.0575457,
2002-12-22, 03:28:00,VALID,914.415,VALID,0,VALID,99.6785,VALID,0.101885,VALID,20.1729,VALID,33,VALID,0.401816,
2002-12-22, 03:29:00,VALID,914.407,VALID,0,VALID,99.6824,VALID,0.0849042,VALID,20.1898,VALID,29,VALID,0.344336,
2002-12-22, 03:30:00,VALID,914.414,VALID,0,VALID,99.69,VALID,0.101885,VALID,20.1829,VALID,30,VALID,0.464543,
2002-12-22, 03:31:00,VALID,914.406,VALID,0,VALID,99.676,VALID,0.101885,VALID,20.1791,VALID,23,VALID,0.491602,
2002-12-22, 03:32:00,VALID,914.4,VALID,0,VALID,99.6798,VALID,0.101885,VALID,20.1702,VALID,22,VALID,0.436266,
2002-12-22, 03:33:00,VALID,914.41,VALID,0,VALID,99.6824,VALID,0.0849042,VALID,20.1632,VALID,24,VALID,0.29009,
2002-12-22, 03:34:00,VALID,914.416,VALID,0,VALID,99.6836,VALID,0.0509425,VALID,20.1543,VALID,35,VALID,0.273438,